Station Historical Data
Daily Summary for August 1, 2012 Units:  English    Metric   Both
« Previous Day
Next Day »
Daily Weekly Monthly Yearly Custom
  High: Low: Average:
Temperature: 94.8 °F 72.2 °F 81.2 °F
Dew Point: 78.1 °F 64.4 °F 72 °F
Humidity: 93% 46% 76%
Wind Speed: 13.0mph 0.0mph 2.4mph
Wind Gust: 18.0mph - -
Wind- - SW
Pressure: 29.89 in 29.79 in -
Precipitation: 0.00 in    
Historical Graphs
 
 
Tabular Data for August 1, 2012
Time Temperature Dew Point Pressure Wind Wind Speed Wind Gust Humidity Rainfall Rate (Hourly) Conditions
00:00 77.9 °F 73.4 °F 29.85 in Calm     86% 0.00 in
00:05 77.4 °F 72.9 °F 29.85 in Calm     86% 0.00 in
00:10 77.1 °F 73.3 °F 29.85 in Calm     88% 0.00 in
00:15 76.7 °F 73.6 °F 29.85 in SW 1.0 mph 1.0 mph 90% 0.00 in
00:20 76.4 °F 73.6 °F 29.85 in SW 2.0 mph 2.0 mph 91% 0.00 in
00:25 75.8 °F 73.0 °F 29.85 in SSW 1.0 mph 2.0 mph 91% 0.00 in
00:31 75.7 °F 72.9 °F 29.85 in SW 2.0 mph 2.0 mph 91% 0.00 in
00:36 75.8 °F 73.0 °F 29.84 in SSW 1.0 mph 1.0 mph 91% 0.00 in
00:41 75.9 °F 73.4 °F 29.84 in Calm   1.0 mph 92% 0.00 in
00:46 75.9 °F 73.4 °F 29.85 in Calm     92% 0.00 in
00:51 75.9 °F 73.4 °F 29.85 in Calm     92% 0.00 in
00:56 75.9 °F 73.4 °F 29.85 in Calm     92% 0.00 in
01:01 75.9 °F 73.4 °F 29.85 in Calm     92% 0.00 in
01:06 76.0 °F 73.5 °F 29.85 in Calm     92% 0.00 in
01:11 76.0 °F 73.5 °F 29.85 in Calm     92% 0.00 in
01:16 76.0 °F 73.5 °F 29.85 in South 1.0 mph 1.0 mph 92% 0.00 in
01:21 75.9 °F 73.4 °F 29.85 in Calm   1.0 mph 92% 0.00 in
01:26 76.2 °F 73.7 °F 29.85 in Calm     92% 0.00 in
01:31 76.0 °F 73.2 °F 29.85 in Calm     91% 0.00 in
01:36 75.8 °F 73.3 °F 29.85 in Calm     92% 0.00 in
01:42 75.7 °F 73.2 °F 29.85 in Calm     92% 0.00 in
01:47 75.6 °F 73.1 °F 29.86 in Calm     92% 0.00 in
01:52 75.4 °F 72.9 °F 29.86 in Calm     92% 0.00 in
01:57 75.2 °F 72.7 °F 29.86 in Calm     92% 0.00 in
02:02 75.0 °F 72.5 °F 29.86 in Calm     92% 0.00 in
02:07 75.0 °F 72.5 °F 29.86 in Calm     92% 0.00 in
02:12 74.9 °F 72.4 °F 29.86 in Calm     92% 0.00 in
02:17 74.7 °F 72.2 °F 29.86 in Calm     92% 0.00 in
02:22 74.6 °F 72.1 °F 29.86 in Calm     92% 0.00 in
02:27 74.3 °F 71.8 °F 29.86 in Calm     92% 0.00 in
02:32 74.0 °F 71.5 °F 29.86 in Calm     92% 0.00 in
02:37 73.8 °F 71.3 °F 29.86 in Calm     92% 0.00 in
02:42 73.9 °F 71.4 °F 29.86 in Calm     92% 0.00 in
02:47 73.9 °F 71.8 °F 29.86 in Calm     93% 0.00 in
02:52 73.8 °F 71.3 °F 29.86 in Calm     92% 0.00 in
02:57 73.7 °F 71.6 °F 29.86 in Calm     93% 0.00 in
03:02 73.5 °F 71.4 °F 29.86 in Calm     93% 0.00 in
03:07 73.3 °F 71.2 °F 29.86 in Calm     93% 0.00 in
03:12 73.3 °F 71.2 °F 29.86 in Calm     93% 0.00 in
03:17 73.5 °F 71.4 °F 29.85 in Calm     93% 0.00 in
03:22 73.7 °F 71.6 °F 29.85 in Calm     93% 0.00 in
03:27 73.6 °F 71.5 °F 29.85 in Calm     93% 0.00 in
03:32 73.9 °F 71.4 °F 29.85 in Calm     92% 0.00 in
03:37 73.8 °F 71.7 °F 29.85 in Calm     93% 0.00 in
03:42 73.7 °F 71.6 °F 29.85 in Calm     93% 0.00 in
03:47 73.5 °F 71.0 °F 29.85 in Calm     92% 0.00 in
03:52 73.9 °F 71.4 °F 29.86 in Calm     92% 0.00 in
03:57 73.7 °F 71.6 °F 29.85 in Calm     93% 0.00 in
04:02 73.8 °F 71.3 °F 29.85 in Calm     92% 0.00 in
04:08 74.2 °F 71.7 °F 29.86 in Calm     92% 0.00 in
04:13 74.1 °F 71.9 °F 29.85 in Calm     93% 0.00 in
04:18 74.0 °F 71.5 °F 29.85 in Calm     92% 0.00 in
04:23 73.8 °F 71.7 °F 29.85 in Calm     93% 0.00 in
04:28 73.7 °F 71.6 °F 29.86 in Calm     93% 0.00 in
04:33 73.6 °F 71.5 °F 29.86 in Calm     93% 0.00 in
04:38 73.5 °F 71.4 °F 29.86 in Calm     93% 0.00 in
04:43 73.4 °F 71.3 °F 29.86 in Calm     93% 0.00 in
04:48 73.3 °F 71.2 °F 29.86 in Calm     93% 0.00 in
04:53 73.1 °F 71.0 °F 29.86 in Calm     93% 0.00 in
04:58 73.0 °F 70.9 °F 29.86 in Calm     93% 0.00 in
05:03 73.1 °F 71.0 °F 29.86 in Calm     93% 0.00 in
05:08 73.1 °F 71.0 °F 29.86 in Calm     93% 0.00 in
05:13 73.2 °F 71.1 °F 29.86 in Calm     93% 0.00 in
05:18 73.3 °F 71.2 °F 29.85 in Calm     93% 0.00 in
05:23 72.9 °F 70.8 °F 29.85 in Calm     93% 0.00 in
05:28 72.8 °F 70.7 °F 29.86 in Calm     93% 0.00 in
05:33 72.6 °F 70.5 °F 29.86 in Calm     93% 0.00 in
05:38 72.6 °F 70.5 °F 29.86 in Calm     93% 0.00 in
05:43 72.7 °F 70.6 °F 29.86 in Calm     93% 0.00 in
05:48 72.7 °F 70.6 °F 29.86 in Calm     93% 0.00 in
05:54 72.7 °F 70.6 °F 29.86 in Calm     93% 0.00 in
05:59 72.6 °F 70.5 °F 29.86 in Calm     93% 0.00 in
06:04 72.4 °F 70.3 °F 29.86 in Calm     93% 0.00 in
06:09 72.5 °F 70.4 °F 29.86 in Calm     93% 0.00 in
06:14 72.6 °F 70.5 °F 29.86 in Calm     93% 0.00 in
06:19 72.5 °F 70.4 °F 29.87 in Calm     93% 0.00 in
06:24 72.6 °F 70.5 °F 29.86 in Calm     93% 0.00 in
06:29 72.6 °F 70.5 °F 29.87 in Calm     93% 0.00 in
06:34 72.2 °F 70.1 °F 29.87 in Calm     93% 0.00 in
06:39 72.4 °F 69.9 °F 29.87 in Calm     92% 0.00 in
06:44 72.7 °F 70.2 °F 29.87 in Calm     92% 0.00 in
06:49 72.6 °F 70.5 °F 29.87 in Calm     93% 0.00 in
06:54 72.6 °F 70.5 °F 29.87 in Calm     93% 0.00 in
06:59 72.6 °F 70.5 °F 29.87 in Calm     93% 0.00 in
07:04 72.5 °F 70.4 °F 29.87 in Calm     93% 0.00 in
07:09 72.5 °F 70.4 °F 29.88 in Calm     93% 0.00 in
07:14 72.5 °F 70.1 °F 29.88 in Calm     92% 0.00 in
07:19 72.3 °F 70.2 °F 29.88 in Calm     93% 0.00 in
07:24 72.7 °F 70.2 °F 29.88 in Calm     92% 0.00 in
07:29 72.9 °F 70.4 °F 29.88 in Calm     92% 0.00 in
07:34 72.9 °F 70.4 °F 29.88 in Calm     92% 0.00 in
07:39 72.9 °F 70.4 °F 29.88 in Calm     92% 0.00 in
07:44 73.1 °F 70.6 °F 29.88 in Calm     92% 0.00 in
07:50 73.7 °F 71.2 °F 29.88 in Calm     92% 0.00 in
07:54 73.9 °F 71.4 °F 29.88 in Calm     92% 0.00 in
08:00 74.0 °F 71.5 °F 29.88 in Calm     92% 0.00 in
08:05 74.3 °F 71.8 °F 29.88 in Calm     92% 0.00 in
08:10 75.4 °F 72.9 °F 29.88 in Calm     92% 0.00 in
08:15 76.0 °F 73.5 °F 29.88 in Calm     92% 0.00 in
08:20 76.5 °F 74.0 °F 29.88 in Calm     92% 0.00 in
08:25 76.4 °F 73.9 °F 29.88 in WSW 1.0 mph 1.0 mph 92% 0.00 in
08:30 76.5 °F 74.0 °F 29.89 in WSW 1.0 mph 1.0 mph 92% 0.00 in
08:35 76.8 °F 74.3 °F 29.88 in Calm   1.0 mph 92% 0.00 in
08:40 77.4 °F 74.9 °F 29.88 in Calm   1.0 mph 92% 0.00 in
08:45 77.8 °F 75.0 °F 29.88 in WSW 1.0 mph 1.0 mph 91% 0.00 in
08:50 78.0 °F 74.8 °F 29.89 in West 1.0 mph 2.0 mph 90% 0.00 in
08:55 78.4 °F 74.9 °F 29.88 in Calm   2.0 mph 89% 0.00 in
09:00 78.8 °F 75.6 °F 29.89 in WNW 2.0 mph 2.0 mph 90% 0.00 in
09:05 79.3 °F 75.4 °F 29.89 in NW 1.0 mph 2.0 mph 88% 0.00 in
09:10 79.7 °F 75.8 °F 29.89 in NW 1.0 mph 1.0 mph 88% 0.00 in
09:15 80.3 °F 76.1 °F 29.89 in NW 1.0 mph 1.0 mph 87% 0.00 in
09:20 80.6 °F 75.7 °F 29.89 in WNW 2.0 mph 3.0 mph 85% 0.00 in
09:25 80.8 °F 75.9 °F 29.89 in NW 2.0 mph 3.0 mph 85% 0.00 in
09:30 81.3 °F 76.4 °F 29.89 in NW 1.0 mph 3.0 mph 85% 0.00 in
09:35 81.8 °F 76.1 °F 29.89 in NNW 2.0 mph 2.0 mph 83% 0.00 in
09:40 82.3 °F 77.3 °F 29.89 in Calm   2.0 mph 85% 0.00 in
09:45 82.6 °F 76.6 °F 29.89 in North 2.0 mph 3.0 mph 82% 0.00 in
09:50 83.0 °F 76.9 °F 29.89 in NNW 2.0 mph 3.0 mph 82% 0.00 in
09:55 83.1 °F 76.7 °F 29.89 in WNW 2.0 mph 3.0 mph 81% 0.00 in
10:00 83.5 °F 77.4 °F 29.89 in NW 2.0 mph 3.0 mph 82% 0.00 in
10:05 84.2 °F 77.7 °F 29.89 in Calm   2.0 mph 81% 0.00 in
10:10 85.4 °F 77.8 °F 29.89 in SW 3.0 mph 3.0 mph 78% 0.00 in
10:15 85.3 °F 78.1 °F 29.89 in West 3.0 mph 4.0 mph 79% 0.00 in
10:20 85.1 °F 77.9 °F 29.89 in West 2.0 mph 3.0 mph 79% 0.00 in
10:25 85.0 °F 77.0 °F 29.89 in WSW 3.0 mph 5.0 mph 77% 0.00 in
10:30 85.2 °F 77.6 °F 29.89 in WSW 4.0 mph 4.0 mph 78% 0.00 in
10:35 85.4 °F 77.0 °F 29.89 in West 2.0 mph 3.0 mph 76% 0.00 in
10:40 85.7 °F 76.5 °F 29.89 in WNW 4.0 mph 5.0 mph 74% 0.00 in
10:45 85.9 °F 77.1 °F 29.89 in West 3.0 mph 6.0 mph 75% 0.00 in
10:50 86.1 °F 76.8 °F 29.89 in West 5.0 mph 6.0 mph 74% 0.00 in
10:55 86.4 °F 77.9 °F 29.89 in West 3.0 mph 6.0 mph 76% 0.00 in
11:00 86.3 °F 77.0 °F 29.89 in WNW 6.0 mph 7.0 mph 74% 0.00 in
11:06 86.5 °F 76.8 °F 29.89 in WSW 4.0 mph 7.0 mph 73% 0.00 in
11:11 86.8 °F 76.3 °F 29.89 in SW 3.0 mph 6.0 mph 71% 0.00 in
11:16 86.8 °F 75.4 °F 29.89 in WSW 6.0 mph 8.0 mph 69% 0.00 in
11:21 86.9 °F 76.8 °F 29.89 in WNW 4.0 mph 7.0 mph 72% 0.00 in
11:26 87.1 °F 76.6 °F 29.89 in WSW 4.0 mph 7.0 mph 71% 0.00 in
11:31 87.4 °F 77.3 °F 29.89 in WSW 3.0 mph 9.0 mph 72% 0.00 in
11:36 87.8 °F 76.8 °F 29.89 in SW 10.0 mph 10.0 mph 70% 0.00 in
11:41 88.1 °F 75.3 °F 29.89 in WSW 7.0 mph 10.0 mph 66% 0.00 in
11:46 88.0 °F 75.2 °F 29.89 in WSW 6.0 mph 10.0 mph 66% 0.00 in
11:51 87.9 °F 75.6 °F 29.89 in WSW 6.0 mph 9.0 mph 67% 0.00 in
11:56 88.1 °F 75.3 °F 29.89 in SW 13.0 mph 13.0 mph 66% 0.00 in
12:01 88.2 °F 75.4 °F 29.89 in SW 5.0 mph 9.0 mph 66% 0.00 in
12:06 88.3 °F 76.0 °F 29.88 in West 5.0 mph 8.0 mph 67% 0.00 in
12:11 88.3 °F 75.1 °F 29.88 in WSW 3.0 mph 10.0 mph 65% 0.00 in
12:16 88.7 °F 75.4 °F 29.88 in SW 8.0 mph 10.0 mph 65% 0.00 in
12:21 88.8 °F 76.9 °F 29.89 in SSW 5.0 mph 10.0 mph 68% 0.00 in
12:26 89.0 °F 75.2 °F 29.88 in SW 8.0 mph 10.0 mph 64% 0.00 in
12:32 89.3 °F 76.0 °F 29.88 in SSW 7.0 mph 10.0 mph 65% 0.00 in
12:37 89.5 °F 76.7 °F 29.88 in SSW 4.0 mph 10.0 mph 66% 0.00 in
12:42 89.6 °F 75.3 °F 29.88 in West 5.0 mph 10.0 mph 63% 0.00 in
12:47 89.6 °F 74.9 °F 29.88 in West 6.0 mph 10.0 mph 62% 0.00 in
12:52 89.7 °F 74.0 °F 29.88 in SW 9.0 mph 12.0 mph 60% 0.00 in
12:57 89.8 °F 75.5 °F 29.88 in SW 10.0 mph 10.0 mph 63% 0.00 in
13:02 89.7 °F 74.0 °F 29.87 in WSW 8.0 mph 10.0 mph 60% 0.00 in
13:07 89.7 °F 74.0 °F 29.87 in WNW 7.0 mph 9.0 mph 60% 0.00 in
13:12 89.8 °F 74.6 °F 29.87 in West 3.0 mph 5.0 mph 61% 0.00 in
13:17 90.1 °F 73.3 °F 29.87 in West 3.0 mph 11.0 mph 58% 0.00 in
13:22 90.2 °F 72.9 °F 29.87 in SSW 6.0 mph 9.0 mph 57% 0.00 in
13:27 90.7 °F 75.4 °F 29.87 in WSW 5.0 mph 9.0 mph 61% 0.00 in
13:32 90.9 °F 74.1 °F 29.87 in SW 3.0 mph 10.0 mph 58% 0.00 in
13:37 90.9 °F 73.6 °F 29.87 in WSW 3.0 mph 8.0 mph 57% 0.00 in
13:42 90.8 °F 74.0 °F 29.87 in SW 3.0 mph 10.0 mph 58% 0.00 in
13:47 91.1 °F 76.3 °F 29.86 in SW 4.0 mph 9.0 mph 62% 0.00 in
13:52 91.6 °F 74.2 °F 29.86 in WSW 6.0 mph 8.0 mph 57% 0.00 in
13:57 91.5 °F 72.5 °F 29.86 in WSW 8.0 mph 10.0 mph 54% 0.00 in
14:02 91.4 °F 73.5 °F 29.86 in SW 5.0 mph 8.0 mph 56% 0.00 in
14:07 91.8 °F 77.4 °F 29.86 in SW 3.0 mph 7.0 mph 63% 0.00 in
14:12 92.0 °F 75.6 °F 29.86 in SSE 5.0 mph 8.0 mph 59% 0.00 in
14:17 92.2 °F 75.3 °F 29.86 in SW 6.0 mph 9.0 mph 58% 0.00 in
14:22 92.2 °F 75.3 °F 29.86 in South 3.0 mph 8.0 mph 58% 0.00 in
14:27 92.4 °F 76.0 °F 29.86 in South 5.0 mph 7.0 mph 59% 0.00 in
14:32 92.3 °F 71.6 °F 29.86 in SW 10.0 mph 10.0 mph 51% 0.00 in
14:38 92.2 °F 71.5 °F 29.85 in SSW 3.0 mph 10.0 mph 51% 0.00 in
14:43 92.2 °F 71.5 °F 29.85 in WSW 3.0 mph 8.0 mph 51% 0.00 in
14:48 92.4 °F 73.9 °F 29.85 in SSW 6.0 mph 9.0 mph 55% 0.00 in
14:53 92.6 °F 73.0 °F 29.85 in SSW 5.0 mph 8.0 mph 53% 0.00 in
14:58 92.6 °F 73.0 °F 29.85 in SW 6.0 mph 8.0 mph 53% 0.00 in
15:03 92.5 °F 74.0 °F 29.84 in SSE 5.0 mph 9.0 mph 55% 0.00 in
15:08 92.6 °F 71.8 °F 29.84 in West 5.0 mph 9.0 mph 51% 0.00 in
15:13 92.8 °F 72.6 °F 29.84 in South 6.0 mph 9.0 mph 52% 0.00 in
15:18 93.1 °F 74.6 °F 29.83 in SSW 2.0 mph 5.0 mph 55% 0.00 in
15:23 93.3 °F 71.3 °F 29.83 in SW 3.0 mph 9.0 mph 49% 0.00 in
15:28 93.3 °F 71.9 °F 29.83 in WSW 5.0 mph 8.0 mph 50% 0.00 in
15:33 93.3 °F 74.2 °F 29.83 in SE 3.0 mph 5.0 mph 54% 0.00 in
15:38 93.2 °F 73.0 °F 29.83 in SW 7.0 mph 9.0 mph 52% 0.00 in
15:43 93.4 °F 73.7 °F 29.82 in SE 6.0 mph 8.0 mph 53% 0.00 in
15:48 93.4 °F 73.2 °F 29.82 in South 4.0 mph 7.0 mph 52% 0.00 in
15:53 93.4 °F 73.2 °F 29.82 in SE 5.0 mph 7.0 mph 52% 0.00 in
15:58 93.5 °F 74.4 °F 29.82 in SSE 2.0 mph 6.0 mph 54% 0.00 in
16:03 93.7 °F 72.3 °F 29.81 in SW 6.0 mph 7.0 mph 50% 0.00 in
16:08 93.9 °F 73.6 °F 29.81 in SSW 4.0 mph 7.0 mph 52% 0.00 in
16:13 94.0 °F 73.1 °F 29.81 in SW 5.0 mph 8.0 mph 51% 0.00 in
16:18 93.9 °F 71.8 °F 29.80 in WSW 3.0 mph 6.0 mph 49% 0.00 in
16:23 94.0 °F 73.7 °F 29.80 in SW 3.0 mph 8.0 mph 52% 0.00 in
16:28 94.0 °F 73.1 °F 29.80 in South 3.0 mph 5.0 mph 51% 0.00 in
16:33 93.9 °F 72.4 °F 29.80 in SE 6.0 mph 8.0 mph 50% 0.00 in
16:38 93.8 °F 72.9 °F 29.80 in SSW 4.0 mph 8.0 mph 51% 0.00 in
16:43 94.0 °F 73.1 °F 29.80 in SSE 5.0 mph 5.0 mph 51% 0.00 in
16:48 94.4 °F 71.7 °F 29.79 in SW 4.0 mph 6.0 mph 48% 0.00 in
16:53 94.4 °F 71.7 °F 29.79 in South 2.0 mph 8.0 mph 48% 0.00 in
16:58 94.3 °F 72.8 °F 29.79 in SSE 4.0 mph 8.0 mph 50% 0.00 in
17:03 94.3 °F 71.0 °F 29.79 in SSW 5.0 mph 6.0 mph 47% 0.00 in
17:08 94.7 °F 72.6 °F 29.80 in SW 4.0 mph 7.0 mph 49% 0.00 in
17:13 94.8 °F 72.1 °F 29.80 in South 4.0 mph 7.0 mph 48% 0.00 in
17:18 94.8 °F 70.8 °F 29.80 in SSW 7.0 mph 8.0 mph 46% 0.00 in
17:23 94.0 °F 70.7 °F 29.80 in SW 6.0 mph 8.0 mph 47% 0.00 in
17:28 93.2 °F 72.4 °F 29.80 in SW 5.0 mph 8.0 mph 51% 0.00 in
17:33 92.6 °F 71.8 °F 29.80 in SW 5.0 mph 5.0 mph 51% 0.00 in
17:38 92.2 °F 72.6 °F 29.80 in SSW 4.0 mph 7.0 mph 53% 0.00 in
17:43 91.8 °F 72.2 °F 29.79 in South 4.0 mph 7.0 mph 53% 0.00 in
17:48 91.4 °F 72.4 °F 29.79 in SSE 5.0 mph 6.0 mph 54% 0.00 in
17:53 91.2 °F 72.8 °F 29.79 in South 3.0 mph 5.0 mph 55% 0.00 in
17:58 91.1 °F 73.2 °F 29.79 in SSW 4.0 mph 5.0 mph 56% 0.00 in
18:03 90.8 °F 74.0 °F 29.80 in SW 2.0 mph 4.0 mph 58% 0.00 in
18:08 90.3 °F 74.0 °F 29.80 in South 4.0 mph 5.0 mph 59% 0.00 in
18:13 90.0 °F 74.8 °F 29.81 in SW 4.0 mph 5.0 mph 61% 0.00 in
18:18 88.6 °F 72.9 °F 29.82 in West 11.0 mph 17.0 mph 60% 0.00 in
18:23 86.3 °F 72.2 °F 29.83 in West 8.0 mph 18.0 mph 63% 0.00 in
18:28 84.9 °F 71.8 °F 29.82 in West 7.0 mph 13.0 mph 65% 0.00 in
18:33 83.9 °F 71.8 °F 29.83 in WSW 5.0 mph 11.0 mph 67% 0.00 in
18:38 83.4 °F 71.7 °F 29.81 in West 6.0 mph 9.0 mph 68% 0.00 in
18:44 82.8 °F 71.2 °F 29.81 in SW 7.0 mph 14.0 mph 68% 0.00 in
18:49 82.3 °F 70.3 °F 29.82 in West 5.0 mph 11.0 mph 67% 0.00 in
18:54 81.7 °F 69.2 °F 29.82 in WNW 4.0 mph 9.0 mph 66% 0.00 in
18:59 81.5 °F 68.6 °F 29.82 in West 5.0 mph 7.0 mph 65% 0.00 in
19:04 81.5 °F 67.7 °F 29.81 in WNW 4.0 mph 14.0 mph 63% 0.00 in
19:09 81.3 °F 66.1 °F 29.81 in West 9.0 mph 9.0 mph 60% 0.00 in
19:14 81.2 °F 66.5 °F 29.81 in West 7.0 mph 8.0 mph 61% 0.00 in
19:19 81.2 °F 66.0 °F 29.81 in WNW 4.0 mph 6.0 mph 60% 0.00 in
19:24 81.1 °F 64.9 °F 29.81 in WNW 3.0 mph 7.0 mph 58% 0.00 in
19:29 81.3 °F 65.1 °F 29.81 in WNW 1.0 mph 5.0 mph 58% 0.00 in
19:34 81.6 °F 64.4 °F 29.82 in NNE 3.0 mph 6.0 mph 56% 0.00 in
19:39 81.4 °F 65.2 °F 29.82 in NE 3.0 mph 5.0 mph 58% 0.00 in
19:44 80.9 °F 65.2 °F 29.82 in NE 6.0 mph 6.0 mph 59% 0.00 in
19:49 80.6 °F 66.4 °F 29.82 in East 4.0 mph 11.0 mph 62% 0.00 in
19:54 80.3 °F 67.5 °F 29.81 in NNW 2.0 mph 3.0 mph 65% 0.00 in
19:59 80.1 °F 66.8 °F 29.81 in NE 4.0 mph 5.0 mph 64% 0.00 in
20:04 79.9 °F 66.7 °F 29.81 in East 3.0 mph 7.0 mph 64% 0.00 in
20:09 79.7 °F 66.9 °F 29.80 in ENE 1.0 mph 4.0 mph 65% 0.00 in
20:14 79.5 °F 67.2 °F 29.79 in SE 1.0 mph 3.0 mph 66% 0.00 in
20:19 79.1 °F 67.6 °F 29.80 in ENE 2.0 mph 3.0 mph 68% 0.00 in
20:24 79.0 °F 68.4 °F 29.80 in NNW 1.0 mph 1.0 mph 70% 0.00 in
20:29 78.7 °F 67.7 °F 29.80 in WSW 1.0 mph 2.0 mph 69% 0.00 in
20:34 78.6 °F 68.4 °F 29.80 in SW 3.0 mph 4.0 mph 71% 0.00 in
20:39 78.1 °F 68.3 °F 29.79 in SW 2.0 mph 2.0 mph 72% 0.00 in
20:44 77.8 °F 68.1 °F 29.79 in Calm   2.0 mph 72% 0.00 in
20:49 77.7 °F 68.0 °F 29.79 in SW 1.0 mph 1.0 mph 72% 0.00 in
20:54 77.5 °F 68.2 °F 29.79 in South 2.0 mph 2.0 mph 73% 0.00 in
20:59 77.2 °F 68.7 °F 29.79 in West 1.0 mph 2.0 mph 75% 0.00 in
21:04 76.9 °F 68.4 °F 29.80 in WSW 2.0 mph 3.0 mph 75% 0.00 in
21:09 76.8 °F 68.3 °F 29.81 in West 1.0 mph 2.0 mph 75% 0.00 in
21:14 76.6 °F 68.1 °F 29.81 in West 2.0 mph 3.0 mph 75% 0.00 in
21:19 76.6 °F 68.1 °F 29.81 in WSW 2.0 mph 3.0 mph 75% 0.00 in
21:25 76.5 °F 68.0 °F 29.81 in West 2.0 mph 3.0 mph 75% 0.00 in
21:30 76.4 °F 67.5 °F 29.82 in West 2.0 mph 3.0 mph 74% 0.00 in
21:35 76.5 °F 67.6 °F 29.82 in WSW 2.0 mph 3.0 mph 74% 0.00 in
21:40 76.6 °F 67.3 °F 29.82 in Calm   2.0 mph 73% 0.00 in
21:45 76.6 °F 67.3 °F 29.82 in WNW 2.0 mph 2.0 mph 73% 0.00 in
21:50 76.5 °F 67.2 °F 29.82 in NW 1.0 mph 2.0 mph 73% 0.00 in
21:55 76.3 °F 67.4 °F 29.82 in NNW 2.0 mph 3.0 mph 74% 0.00 in
22:00 76.1 °F 67.6 °F 29.83 in NE 6.0 mph 8.0 mph 75% 0.00 in
22:05 76.1 °F 67.2 °F 29.83 in NW 4.0 mph 7.0 mph 74% 0.00 in
22:10 76.2 °F 67.3 °F 29.83 in NNW 4.0 mph 6.0 mph 74% 0.00 in
22:15 76.2 °F 67.3 °F 29.83 in WNW 3.0 mph 3.0 mph 74% 0.00 in
22:20 76.3 °F 67.4 °F 29.83 in ENE 1.0 mph 2.0 mph 74% 0.00 in
22:25 76.3 °F 67.8 °F 29.84 in ENE 1.0 mph 1.0 mph 75% 0.00 in
22:30 76.2 °F 67.7 °F 29.84 in NNE 2.0 mph 3.0 mph 75% 0.00 in
22:35 76.2 °F 67.7 °F 29.84 in NE 1.0 mph 3.0 mph 75% 0.00 in
22:40 76.1 °F 68.0 °F 29.84 in Calm     76% 0.00 in
22:45 76.0 °F 68.3 °F 29.84 in Calm     77% 0.00 in
22:50 75.9 °F 68.6 °F 29.84 in Calm   1.0 mph 78% 0.00 in
22:55 75.8 °F 68.5 °F 29.84 in SE 1.0 mph 1.0 mph 78% 0.00 in
23:00 75.6 °F 68.6 °F 29.84 in SE 1.0 mph 1.0 mph 79% 0.00 in
23:05 75.4 °F 68.8 °F 29.84 in SSE 2.0 mph 3.0 mph 80% 0.00 in
23:10 75.0 °F 69.1 °F 29.85 in SSE 2.0 mph 2.0 mph 82% 0.00 in
23:15 74.9 °F 68.3 °F 29.85 in SW 3.0 mph 3.0 mph 80% 0.00 in
23:20 75.0 °F 68.8 °F 29.85 in SE 1.0 mph 3.0 mph 81% 0.00 in
23:25 74.9 °F 68.3 °F 29.86 in South 1.0 mph 3.0 mph 80% 0.00 in
23:30 74.9 °F 68.3 °F 29.86 in Calm   3.0 mph 80% 0.00 in
23:35 74.9 °F 68.3 °F 29.86 in SSE 1.0 mph 3.0 mph 80% 0.00 in
23:40 74.8 °F 68.6 °F 29.86 in SW 1.0 mph 4.0 mph 81% 0.00 in
23:45 74.6 °F 68.0 °F 29.86 in Calm   1.0 mph 80% 0.00 in
23:50 74.7 °F 68.5 °F 29.86 in SE 2.0 mph 2.0 mph 81% 0.00 in
23:55 74.3 °F 68.4 °F 29.86 in SSE 1.0 mph 4.0 mph 82% 0.00 in
Compliments of Weather Underground